Regional Weather Roundup
Issued by NWS

Home | Current Version | Previous Version | Graphics & Text | Print | Product List | Glossary On
Versions: 1 2 3 4 5 6 7 8 9 10 11 12 13 14 15 16 17 18 19 20 21 22 23 24 25 26 27 28 29 30 31 32 33 34 35 36 37 38 39 40 41 42 43 44 45 46 47 48 49 50
467
ASUS43 KBIS 011010
RWRND

NORTH DAKOTA REGIONAL WEATHER ROUNDUP
NATIONAL WEATHER SERVICE BISMARCK ND
500 AM CDT SAT OCT 01 2016

NOTE: "FAIR" INDICATES FEW OR NO CLOUDS BELOW 12,000 FEET WITH NO
SIGNIFICANT WEATHER AND/OR OBSTRUCTIONS TO VISIBILITY.


NDZ001>003-009>011-017-011100-
NORTHWEST NORTH DAKOTA

CITY           SKY/WX    TMP DP  RH WIND       PRES   REMARKS
WILLISTON      CLEAR     47  44  90 N3        29.98S
MINOT          CLEAR     48  46  93 E5        30.01F
MINOT AFB      CLEAR     46  44  93 SE8       30.01S
$$

NDZ018>021-031>035-040>046-011100-
SOUTHWEST NORTH DAKOTA

CITY           SKY/WX    TMP DP  RH WIND       PRES   REMARKS
BISMARCK       PTCLDY    58  45  62 S12       30.03F
DICKINSON      CLEAR     45  42  89 E7        29.98S
GARRISON         N/A     53  47  79 E7        30.02S
HETTINGER ARPT CLEAR     49  43  80 SE3       30.01S
$$

NDZ004>008-012>016-024-026-027-054-011100-
NORTHEAST NORTH DAKOTA

CITY           SKY/WX    TMP DP  RH WIND       PRES   REMARKS
GRAND FORKS    CLOUDY    53  47  79 S8        30.15F
GRND FRKS AFB  PTCLDY    53  49  86 SW5       30.15S
DEVILS LAKE    PTCLDY    56  48  74 SE13      30.11F
$$

NDZ022-023-025-028>030-036>039-047>053-011100-
SOUTHEAST NORTH DAKOTA

CITY           SKY/WX    TMP DP  RH WIND       PRES   REMARKS
FARGO          PTCLDY    55  48  77 SE10      30.16S
JAMESTOWN      CLOUDY    53  46  77 SE8       30.11S
$$





USA.gov is the U.S. government's official web portal to all federal, state and local government web resources and services.